sat.trackr.live / text

‹ back to catalog

STARLINK-31572

NORAD 59333 · 2024-057P

PAYLOAD ACTIVE UNKNOWN

§ Identity

Operator
Country
US
Launch date
2024-03-25
Launch site
AFETR
Launch vehicle
Mass (kg)
RCS (m²)

Purposes: comms

External: N2YO · Heavens-Above · Gunter

§ Orbital elements

Epoch: 2026-05-25T05:28:31.816992Z

Period
94.27 min
Inclination
42.9999°
Eccentricity
0.0001658
Mean motion
15.27580909 rev/d
Perigee alt
481.9 km
Apogee alt
484.2 km
Semi-major
6,861.2 km
B*
6.5772e-5
RAAN
126.1530°
Arg perigee
271.3963°
Mean anomaly
88.6699°
Rev number
12,141

§ Raw data

STARLINK-315721 59333U 24057P   26145.22814603  .00001548  00000+0  65772-4 0  99932 59333  42.9999 126.1530 0001658 271.3963  88.6699 15.27580909121417

JSON: /api/v1/satellites/59333 · /tle

For live sub-satellite position, see the globe view (requires WebGL).

§ Visibility from observer

Set your observer location to see the next 7 days of passes ≥ 10°. The values pass through the URL so the page stays shareable.

No JS? Fill the form by hand. The geolocation button needs JavaScript.